Regional Weather Roundup
Issued by NWS Albany, NY

Home | Current Version | Previous Version | Text Only | Print | Product List | Glossary On
Versions: 1 2 3 4 5 6 7 8 9 10 11 12 13 14 15 16 17 18 19 20 21 22 23 24 25 26 27 28 29 30 31 32 33 34 35 36 37 38 39 40 41 42 43 44 45 46 47 48 49 50
000
ASUS41 KALY 041410
RWRALY

NEW YORK STATE HOURLY WEATHER ROUNDUP
NATIONAL WEATHER SERVICE ALBANY NY
1000 AM EDT SAT JUL 04 2015

NOTE: "FAIR" INDICATES FEW OR NO CLOUDS BELOW 12,000 FEET WITH NO
SIGNIFICANT WEATHER AND/OR NO OBSTRUCTIONS TO VISIBILITY.

NYZ032-033-038>043-046>054-057>066-NYZ062>081-041500-
EAST


CITY           SKY/WX    TMP DP  RH WIND       PRES   REMARKS
ALBANY         LGT RAIN  63  58  83 CALM      29.98R
GLENS FALLS    CLOUDY    64  56  75 CALM      29.97F
POUGHKEEPSIE   CLOUDY    67  61  81 W3        29.98R
NEWBURGH       PTSUNNY   63  63 100 CALM      30.01R
MONTGOMERY     LGT RAIN  64  61  90 NW6       29.99R FOG
WHITE PLAINS   CLOUDY    69  61  75 VRB6      29.96S
ISLIP          CLOUDY    71  61  70 E8        29.93F
NEW YORK CITY  CLOUDY    71  62  73 NE10      29.94S
CENTRAL PARK   CLOUDY    73  60  63 VRB6      29.98R
$$

NYZ005>009-017-018-044>046-055-056-041500-
CENTRAL


CITY           SKY/WX    TMP DP  RH WIND       PRES   REMARKS
FULTON         CLOUDY    69  62  78 S5        29.93S
SYRACUSE       CLOUDY    65  63  93 E6        29.94R
ROME           CLOUDY    64  57  78 CALM      29.97S
ELMIRA         LGT RAIN  65  62  90 S6        29.96S
BINGHAMTON     LGT RAIN  61  60  97 S7        29.99S FOG
MONTICELLO     CLOUDY    61  61 100 S6        30.04R
$$

NYZ026>034-041>043-041500-
NORTH


CITY           SKY/WX    TMP DP  RH WIND       PRES   REMARKS
WATERTOWN      CLOUDY    67  60  78 CALM      29.93S
FORT DRUM      NOT AVBL
MASSENA        PTSUNNY   67  57  70 CALM      29.95S
SARANAC LAKE   CLOUDY    62  53  72 CALM      29.96F
PLATTSBURGH    CLOUDY    65  56  72 SE5       29.95F
$$

NYZ001>004-010>016-019>021-041500-
WEST


CITY           SKY/WX    TMP DP  RH WIND       PRES   REMARKS
NIAGARA FALLS  MOSUNNY   67  50  54 NE9       29.94S
BUFFALO        MOSUNNY   69  52  54 N6        29.94S
DUNKIRK        SUNNY     66  57  72 VRB5      29.95R
JAMESTOWN      CLOUDY    66  59  77 CALM      29.97R
WELLSVILLE     PTSUNNY   65  58  78 SE7       29.99S
ROCHESTER      CLOUDY    69  57  65 W3        29.93F
PENN YAN       CLOUDY    70  61  73 S8        29.95F
$$

             KEY
       WCI = WIND CHILL INDEX
       VSB = VISIBILITY
       HX  = HEAT INDEX
$$



USA.gov is the U.S. government's official web portal to all federal, state and local government web resources and services.